Regional Weather Roundup
Issued by NWS Jackson, KY

Home | Current Version | Previous Version | Text Only | Print | Product List | Glossary On
Versions: 1 2 3 4 5 6 7 8 9 10 11 12 13 14 15 16 17 18 19 20 21 22 23 24 25 26 27
000
ASUS43 KJKL 192010
RWRJKL

EAST KENTUCKY HOURLY WEATHER ROUNDUP
NATIONAL WEATHER SERVICE JACKSON KY
300 PM EST SUN NOV 19 2017

NOTE: "FAIR" INDICATES FEW OR NO CLOUDS BELOW 12,000 FEET WITH
NO SIGNIFICANT WEATHER AND/OR OBSTRUCTIONS TO VISIBILITY.

* THESE REPORTS ARE NOT UNDER NWS QUALITY CONTROL AND MAY NOT
  REPORT WEATHER SUCH AS PRECIPITATION AND FOG.

KYZ079-080-083-085-087-088-110-112-115-119-120-192100
...EASTERN KENTUCKY...

CITY           SKY/WX    TMP DP  RH WIND       PRES   REMARKS
JACKSON        CLOUDY    39  30  70 W8G17     30.01S WCI  33
LONDON         CLOUDY    40  29  64 W9        30.04F WCI  34
SOMERSET*      CLOUDY    39  28  65 W12G17    30.09S WCI  32
MONTICELLO*    CLOUDY    41  31  67 W12G20    30.09F
WILLIAMSBURG*  CLOUDY    39  32  75 W6        30.05F WCI  35
MIDDLESBORO*   CLOUDY    42  30  61 NW10      30.06S
HARLAN APT*    CLOUDY    41  30  65 SW8       30.03R
PIKE CO APT*   CLOUDY    38  29  69 SW5       29.99S WCI  35
BIG SANDY APT* CLOUDY    40  30  66 W5        30.00S
MOREHEAD APT*  CLOUDY    37  28  70 W9G26     30.03S WCI  31
$$

KYZ035-036-041-042-044-050-067-078-099-192100
...CENTRAL KENTUCKY...

CITY           SKY/WX    TMP DP  RH WIND       PRES   REMARKS
MT STERLING*   CLOUDY    37  32  81 NW12G21   30.05S WCI  30
FLEMING/MASON* CLOUDY    37  29  73 W13       30.04R WCI  28
DANVILLE*      CLOUDY    36  30  80 W8        30.08S WCI  29
LEXINGTON      CLOUDY    38  30  73 W8G20     30.06R WCI  32
FRANKFORT      CLOUDY    38  28  67 W9G20     30.06R WCI  31
LOUISVILLE     MOSUNNY   43  27  53 W14       30.10R
LEBANON*       MOCLDY    37  28  70 W12       30.08S WCI  30
GLASGOW*       SUNNY     44  28  54 W9        30.11S
BOWLING GREEN  SUNNY     44  24  45 NW8       30.13F
$$

KYZ091>093-OHZ055-061-077-WVZ005-015-034-035-042-192100
...SOUTHERN OHIO/WEST VIRGINIA...

CITY           SKY/WX    TMP DP  RH WIND       PRES   REMARKS
COVINGTON      CLOUDY    37  28  70 W17       30.03R WCI  27
COLUMBUS       CLOUDY    39  29  67 W17       29.94R WCI  30
DAYTON         CLOUDY    34  26  72 W23G30    30.00R WCI  22
WILMINGTON     CLOUDY    35  27  72 W17       29.99R WCI  25
HUNTINGTON     CLOUDY    41  29  62 W9        29.98S
CHARLESTON     CLOUDY    41  27  57 W9G18     29.96S
PINEVILLE*     CLOUDY    38  29  70 MISG      30.00S
BECKLEY        CLOUDY    33  26  75 NW10      29.91S WCI  25
BLUEFIELD      MIX PCPN  31  25  78 W14G23    29.91S WCI  21
LOGAN CO APT*  CLOUDY    37  28  70 CALM      29.96S
$$

VAZ002-007-008-TNZ017-027-036-066-071-192100
...SOUTHWEST VIRGINIA/EAST TENNESSEE...

CITY           SKY/WX    TMP DP  RH WIND       PRES   REMARKS
WISE*          CLOUDY    34  30  86 W8        29.98S WCI  27
JONESVILLE*    MOCLDY    41  30  65 W9        30.05F
ABINGDON*      CLOUDY    40  29  63 NW15      29.98R WCI  32
BRISTOL        CLOUDY    41  30  65 W12       30.02R
MORRISTOWN*    CLOUDY    45  28  53 W12       30.04S
SEVIERVILLE*   CLOUDY    48  30  49 VRB7      30.06R
KNOXVILLE      PTSUNNY   46  32  58 W10       30.06R
LAFOLLETTE*    MOCLDY    45  30  57 VRB6      30.09S
OAK RIDGE      PTSUNNY   48  30  49 W8        30.08R
CROSSVILLE     MOSUNNY   41  27  57 W8G16     30.07R
NASHVILLE      SUNNY     47  18  31 NW10      30.14F
$$

...KEY TO REMARKS...
VSB - VISIBILITY IN MILES
WCI - WIND CHILL INDEX
HX  - HEAT INDEX

$$




USA.gov is the U.S. government's official web portal to all federal, state and local government web resources and services.